TimeMDT,TemperatureF,Dew PointF,Humidity,Sea Level PressureIn,VisibilityMPH,Wind Direction,Wind SpeedMPH,Gust SpeedMPH,PrecipitationIn,Events,Conditions,WindDirDegrees,DateUTC
12:53 AM,60.1,48.9,67,30.04,10.0,North,5.8,-,N/A,,Clear,10,2013-07-26 06:53:00
1:53 AM,57.0,48.9,74,30.04,10.0,NE,3.5,-,N/A,,Clear,40,2013-07-26 07:53:00
2:53 AM,57.0,46.0,67,30.03,10.0,NNE,5.8,-,N/A,,Clear,20,2013-07-26 08:53:00
3:53 AM,54.0,46.0,75,30.05,10.0,North,4.6,-,N/A,,Clear,350,2013-07-26 09:53:00
4:53 AM,57.9,48.0,70,30.04,10.0,Calm,Calm,-,N/A,,Clear,0,2013-07-26 10:53:00
5:53 AM,55.0,48.0,77,30.07,10.0,NNW,3.5,-,N/A,,Clear,340,2013-07-26 11:53:00
6:53 AM,51.1,46.0,83,30.09,10.0,NW,4.6,-,N/A,,Clear,320,2013-07-26 12:53:00
7:53 AM,57.0,50.0,77,30.10,10.0,Calm,Calm,-,N/A,,Clear,0,2013-07-26 13:53:00
8:53 AM,68.0,48.0,49,30.11,10.0,Calm,Calm,-,N/A,,Clear,0,2013-07-26 14:53:00
9:53 AM,71.1,50.0,47,30.13,10.0,NW,3.5,-,N/A,,Clear,310,2013-07-26 15:53:00
10:53 AM,77.0,48.9,37,30.11,10.0,Calm,Calm,-,N/A,,Clear,0,2013-07-26 16:53:00
11:53 AM,82.9,42.1,24,30.09,10.0,South,5.8,-,N/A,,Clear,180,2013-07-26 17:53:00
12:53 PM,88.0,39.0,18,30.08,10.0,Calm,Calm,-,N/A,,Clear,0,2013-07-26 18:53:00
1:53 PM,89.1,43.0,20,30.06,10.0,NNW,4.6,-,N/A,,Clear,330,2013-07-26 19:53:00
2:53 PM,91.0,36.0,14,30.04,10.0,Calm,Calm,-,N/A,,Clear,0,2013-07-26 20:53:00
3:53 PM,93.0,37.9,15,30.01,10.0,Calm,Calm,-,N/A,,Clear,0,2013-07-26 21:53:00
4:53 PM,95.0,33.1,11,29.97,10.0,ENE,3.5,-,N/A,,Clear,70,2013-07-26 22:53:00
5:53 PM,93.0,32.0,12,29.96,10.0,South,3.5,-,N/A,,Clear,180,2013-07-26 23:53:00
6:53 PM,93.0,30.0,11,29.96,10.0,South,6.9,-,N/A,,Clear,190,2013-07-27 00:53:00
7:53 PM,81.0,57.0,44,29.97,10.0,West,4.6,-,N/A,,Clear,280,2013-07-27 01:53:00
8:53 PM,82.0,42.1,24,29.94,10.0,WSW,9.2,-,N/A,,Clear,250,2013-07-27 02:53:00
9:53 PM,78.1,46.0,32,29.95,10.0,NE,11.5,18.4,N/A,,Clear,40,2013-07-27 03:53:00
10:53 PM,73.9,45.0,35,29.95,10.0,NE,4.6,-,N/A,,Clear,40,2013-07-27 04:53:00
11:53 PM,70.0,45.0,41,29.96,10.0,NE,3.5,-,N/A,,Clear,40,2013-07-27 05:53:00